This is the latest recevied weather packets stored in our database for station/object K7TUS-6. If no packets are shown the sender has not sent any weather packets the latest 10 day(s).
| Time | Temp. | Humidity | Pressure | Rain* | Wind** | Luminosity | Snow |
|---|---|---|---|---|---|---|---|
| 1777764608 | 18.33° C | 1% | 985.3 hPa | - | - | - | - |
| 1777764308 | 20° C | 2% | 985 hPa | - | - | - | - |
| 1777764007 | 18.89° C | 2% | 984.8 hPa | - | - | - | - |
| 1777763706 | 17.22° C | 100% | 986 hPa | - | - | - | - |
| 1777763406 | 18.33° C | 3% | 985.2 hPa | - | - | - | - |
| 1777763105 | 17.78° C | 3% | 984.9 hPa | - | - | - | - |
| 1777762805 | 17.78° C | 3% | 984.7 hPa | - | - | - | - |
| 1777762504 | 17.78° C | 3% | 985.5 hPa | - | - | - | - |
| 1777762203 | 17.78° C | 2% | 984.8 hPa | - | - | - | - |
| 1777761909 | 17.22° C | 3% | 985.7 hPa | - | - | - | - |
| 1777761608 | 17.22° C | 2% | 985 hPa | - | - | - | - |
| 1777761307 | 17.78° C | 2% | 984.7 hPa | - | - | - | - |
| 1777761007 | 17.78° C | 1% | 984.2 hPa | - | - | - | - |
| 1777760706 | 17.78° C | 2% | 985 hPa | - | - | - | - |
| 1777760405 | 17.78° C | 2% | 985.1 hPa | - | - | - | - |
| 1777760105 | 18.33° C | 3% | 985.2 hPa | - | - | - | - |
| 1777759804 | 18.33° C | 2% | 985.7 hPa | - | - | - | - |
| 1777759504 | 17.78° C | 2% | 985.5 hPa | - | - | - | - |
| 1777759209 | 17.78° C | 2% | 986.5 hPa | - | - | - | - |
| 1777758908 | 17.78° C | 3% | 986 hPa | - | - | - | - |
| 1777758608 | 17.78° C | 3% | 986.2 hPa | - | - | - | - |
| 1777758307 | 17.78° C | 3% | 985.7 hPa | - | - | - | - |
| 1777758006 | 18.33° C | 3% | 985.1 hPa | - | - | - | - |
| 1777757718 | 18.33° C | 2% | 986.1 hPa | - | - | - | - |
| 1777757405 | 18.89° C | 1% | 985.5 hPa | - | - | - | - |
* Rain since midnight (hover to see other rain measurements)
** Current wind speed in m/s (hover to see current wind gust speed)